Tracking 29606 objects as of 19-Sep-2024
HD Live streaming from Space Station
objects crossing your sky now

CZ-4C DEB

Track CZ-4C DEB now!
10-day predictions


NORAD ID: 43418
Int'l Code: 2014-080G
Perigee: 855.7 km
Apogee: 1,340.2 km
Inclination: 63.4 °
Period: 107.1 minutes
Semi major axis: 7468 km
RCS: Unknown
Launch date: December 10, 2014
Source: People's Republic of China (PRC)
Launch site: Jiuquan Satellite Launch Center, China (JSC)

Note: This is SATELLITE DEBRIS
Your satellite tracking list
Your tracking list is empty




NASA's NSSDC Master Catalog

Two Line Element Set (TLE):
1 43418U 14080G   24256.22530058  .00000928  00000-0  12604-2 0  9991
2 43418  63.3984 177.6743 0324302   6.8208 353.7074 13.44969582458533
Source of the keplerian elements: AFSPC